Tracking 22779 objects as of 12-Apr-2021
HD Live streaming from Space Station
objects crossing your sky now

STARLINK-1760

Track STARLINK-1760 now!
10-day predictions
STARLINK-1760 is classified as:


NORAD ID: 46341
Int'l Code: 2020-062S
Perigee: 554.1 km
Apogee: 554.7 km
Inclination: 53.1 °
Period: 95.6 minutes
Semi major axis: 6925 km
RCS: Unknown
Launch date: September 3, 2020
Source: United States (US)
Launch site: AIR FORCE EASTERN TEST RANGE (AFETR)
aabbcc
Your satellite tracking list
Your tracking list is empty




NASA's NSSDC Master Catalog

Two Line Element Set (TLE):
1 46341U 20062S   21101.77471635  .00000218  00000-0  33514-4 0  9994
2 46341  53.0578 125.3205 0000444 122.5562 237.5470 15.06396701 34363
Source of the keplerian elements: AFSPC